Weather History for Hot Springs, VA

Change the Weather History Date:

Friday, February 1, 2013

  Actual Average Record
Temperature  
Mean Temperature 12 °F -  
Max Temperature 21 °F 34 °F 60 °F (2002)
Min Temperature 3 °F 20 °F 3 °F (2013)
Degree Days  
Heating Degree Days 53    
Moisture  
Dew Point 4 °F    
Average Humidity 78    
Maximum Humidity 100    
Minimum Humidity 62    
Precipitation  
Precipitation 0.00 in - - ()
Sea Level Pressure  
Sea Level Pressure 29.93 in    
Wind  
Wind Speed 21 mph (West)    
Max Wind Speed 30 mph    
Max Gust Speed 44 mph    
Visibility 9 miles    
Events Snow    
Averages and records for this station are not official NWS values.
T = Trace of Precipitation, MM = Missing Value Source: NWS Daily Summary

Daily Weather History Graph

Daily Weather History Graph

Search for Another Location

Airport:

Trip Planner

Search our weather history database for the weather conditions in past years. The results will help you decide how hot, cold, wet, or windy it might be!

Date:

Astronomy

Feb. 01, 2013 Rise Set
Actual Time 7:23 AM EST 5:42 PM EST
Civil Twilight 6:55 AM EST 6:10 PM EST
Nautical Twilight 6:24 AM EST 6:42 PM EST
Astronomical Twilight 5:53 AM EST 7:13 PM EST
Moon 11:41 PM EST (2/1) 10:02 AM EST (2/1)
Length of Visible Light 11h 14m
Length of Day
10h 19m
Waning Gibbous, 70% of the Moon is Illuminated
Feb 1
Waning Gibbous
Feb 3
Last Quarter
Feb 10
New
Feb 17
First Quarter
Feb 25
Full

Hourly Weather History & Observations

Time (EST) Temp. Windchill Dew Point Humidity Pressure Visibility Wind Dir Wind Speed Gust Speed Precip Events Conditions
12:15 AM 21.2 °F 4.5 °F 19.4 °F 93% 29.72 in - West 24.2 mph 29.9 mph N/A   Overcast
12:35 AM 21.2 °F 5.2 °F 19.4 °F 93% 29.72 in - West 21.9 mph 27.6 mph N/A   Unknown
1:15 AM 21.2 °F 7.8 °F 21.2 °F 100% 29.71 in - WSW 15.0 mph - N/A   Overcast
1:35 AM 21.2 °F 8.9 °F 21.2 °F 100% 29.71 in 2.0 mi WSW 12.7 mph - N/A Snow Light Snow
1:55 AM 21.2 °F 7.8 °F 21.2 °F 100% 29.70 in 1.2 mi WSW 15.0 mph - N/A Snow Light Snow
2:15 AM 21.2 °F 6.8 °F 21.2 °F 100% 29.68 in - WSW 17.3 mph 24.2 mph N/A Snow Snow
2:35 AM 21.2 °F 4.5 °F 21.2 °F 100% 29.67 in - WSW 24.2 mph 31.1 mph N/A Snow Light Snow
2:55 AM 21.2 °F 5.6 °F 21.2 °F 100% 29.66 in - West 20.7 mph 33.4 mph N/A   Overcast
3:15 AM 21.2 °F 3.5 °F 21.2 °F 100% 29.65 in - West 27.6 mph 34.5 mph N/A   Overcast
3:35 AM 21.2 °F 3.5 °F 21.2 °F 100% 29.66 in - West 27.6 mph 36.8 mph N/A   Overcast
3:55 AM 19.4 °F 4.5 °F 19.4 °F 100% 29.69 in - WNW 17.3 mph 33.4 mph N/A   Mostly Cloudy
4:15 AM 17.6 °F 2.7 °F 17.6 °F 100% 29.69 in - WNW 16.1 mph 28.8 mph N/A   Unknown
4:35 AM 14.0 °F -1.4 °F 12.2 °F 93% 29.72 in - WNW 15.0 mph 28.8 mph N/A   Unknown
4:55 AM 12.2 °F -5.3 °F 10.4 °F 92% 29.73 in - WNW 18.4 mph 26.5 mph N/A   Unknown
5:15 AM 12.2 °F -5.8 °F 8.6 °F 85% 29.75 in - West 19.6 mph 26.5 mph N/A   Overcast
5:35 AM 12.2 °F -4.8 °F 6.8 °F 79% 29.76 in - WNW 17.3 mph 28.8 mph N/A   Overcast
6:15 AM 10.4 °F -11.7 °F 6.8 °F 85% 29.77 in - West 29.9 mph 43.7 mph N/A   Unknown
6:35 AM 8.6 °F -13.1 °F 3.2 °F 79% 29.79 in - WNW 26.5 mph 38.0 mph N/A   Mostly Cloudy
6:55 AM - - - N/A% 29.81 in - WNW 23.0 mph - N/A   Unknown
7:15 AM 6.8 °F -14.7 °F 1.4 °F 79% 29.82 in - West 24.2 mph 33.4 mph N/A   Mostly Cloudy
7:35 AM - - - N/A% 29.84 in - WNW 21.9 mph 34.5 mph N/A   Unknown
8:15 AM 6.8 °F -15.1 °F -0.4 °F 72% 29.85 in - West 25.3 mph 39.1 mph N/A   Mostly Cloudy
8:35 AM 5.0 °F -15.7 °F -2.2 °F 72% 29.88 in 5.0 mi WNW 20.7 mph 39.1 mph N/A   Haze
8:55 AM 5.0 °F -18.7 °F -2.2 °F 72% 29.88 in - West 28.8 mph 41.4 mph N/A Snow Light Snow
9:15 AM 5.0 °F -15.2 °F -2.2 °F 72% 29.90 in 0.8 mi WNW 19.6 mph 33.4 mph N/A   Haze
9:35 AM 5.0 °F -17.5 °F -2.2 °F 72% 29.92 in - WNW 25.3 mph 34.5 mph N/A   Mostly Cloudy
9:55 AM 5.0 °F -17.5 °F -4.0 °F 66% 29.92 in - WNW 25.3 mph 40.3 mph N/A   Mostly Cloudy
10:15 AM 5.0 °F - -2.2 °F 72% 29.94 in - North - - N/A   Mostly Cloudy
10:35 AM 6.8 °F -14.7 °F -2.2 °F 67% 29.96 in - WNW 24.2 mph 36.8 mph N/A   Mostly Cloudy
11:15 AM 6.8 °F -13.4 °F -2.2 °F 67% 29.98 in 10.0 mi WNW 20.7 mph 26.5 mph N/A   Scattered Clouds
11:35 AM 6.8 °F -11.8 °F -0.4 °F 72% 30.00 in 10.0 mi West 17.3 mph 26.5 mph N/A   Scattered Clouds
11:55 AM 6.8 °F -12.4 °F -0.4 °F 72% 30.00 in 10.0 mi West 18.4 mph 25.3 mph N/A   Mostly Cloudy
12:15 PM 8.6 °F -10.0 °F -2.2 °F 62% 30.00 in 10.0 mi WNW 18.4 mph 25.3 mph N/A   Scattered Clouds
12:35 PM 8.6 °F -10.0 °F -2.2 °F 62% 30.00 in 10.0 mi West 18.4 mph 26.5 mph N/A   Scattered Clouds
1:15 PM 8.6 °F -11.0 °F -2.2 °F 62% 29.99 in 10.0 mi West 20.7 mph 31.1 mph N/A   Clear
1:35 PM 8.6 °F -11.0 °F -0.4 °F 67% 30.00 in 10.0 mi WNW 20.7 mph 28.8 mph N/A   Clear
1:55 PM 8.6 °F -9.5 °F -0.4 °F 67% 30.00 in 10.0 mi West 17.3 mph 28.8 mph N/A   Clear
2:15 PM 8.6 °F -10.5 °F -0.4 °F 67% 30.01 in 10.0 mi West 19.6 mph 28.8 mph N/A   Clear
2:35 PM 8.6 °F -11.9 °F -0.4 °F 67% 30.01 in 10.0 mi West 23.0 mph 27.6 mph N/A   Clear
2:55 PM 8.6 °F -10.5 °F -0.4 °F 67% 30.02 in 10.0 mi West 19.6 mph 31.1 mph N/A   Clear
3:15 PM 10.4 °F -9.1 °F -0.4 °F 62% 30.02 in 10.0 mi West 21.9 mph 28.8 mph N/A   Clear
3:35 PM 8.6 °F -11.4 °F -0.4 °F 67% 30.03 in 10.0 mi West 21.9 mph 27.6 mph N/A   Clear
3:55 PM 8.6 °F -11.9 °F -2.2 °F 62% 30.03 in 10.0 mi WNW 23.0 mph 31.1 mph N/A   Clear
4:15 PM 8.6 °F -11.0 °F -0.4 °F 67% 30.04 in 10.0 mi West 20.7 mph 28.8 mph N/A   Clear
4:35 PM 8.6 °F -11.9 °F -0.4 °F 67% 30.04 in 10.0 mi West 23.0 mph 28.8 mph N/A   Clear
4:55 PM 8.6 °F -11.9 °F -2.2 °F 62% 30.04 in 10.0 mi West 23.0 mph 29.9 mph N/A   Clear
5:15 PM 8.6 °F -11.9 °F -2.2 °F 62% 30.04 in 10.0 mi West 23.0 mph 29.9 mph N/A   Clear
5:35 PM 6.8 °F -13.4 °F -2.2 °F 67% 30.05 in 10.0 mi WNW 20.7 mph 28.8 mph N/A   Clear
6:15 PM 6.8 °F -12.9 °F -2.2 °F 67% 30.05 in 10.0 mi WNW 19.6 mph 28.8 mph N/A   Clear
6:35 PM 6.8 °F -12.4 °F -2.2 °F 67% 30.06 in 10.0 mi WNW 18.4 mph 26.5 mph N/A   Clear
6:55 PM 5.0 °F -14.7 °F -2.2 °F 72% 30.07 in 10.0 mi West 18.4 mph 24.2 mph N/A   Unknown
7:15 PM 5.0 °F -14.2 °F -0.4 °F 78% 30.08 in 10.0 mi West 17.3 mph 23.0 mph N/A   Clear
7:35 PM 5.0 °F -14.2 °F -2.2 °F 72% 30.09 in 10.0 mi West 17.3 mph 25.3 mph N/A   Clear
7:55 PM 5.0 °F -14.7 °F -0.4 °F 78% 30.09 in 10.0 mi West 18.4 mph - N/A   Clear
8:15 PM 5.0 °F -15.7 °F -0.4 °F 78% 30.10 in 10.0 mi West 20.7 mph 25.3 mph N/A   Clear
8:35 PM 5.0 °F -15.2 °F -0.4 °F 78% 30.10 in 10.0 mi West 19.6 mph 26.5 mph N/A   Clear
8:55 PM 5.0 °F -16.7 °F -0.4 °F 78% 30.10 in 10.0 mi West 23.0 mph - N/A   Clear
9:15 PM 5.0 °F -16.2 °F -0.4 °F 78% 30.11 in 10.0 mi West 21.9 mph 26.5 mph N/A   Clear
9:35 PM 5.0 °F -17.1 °F -0.4 °F 78% 30.11 in 10.0 mi West 24.2 mph 29.9 mph N/A   Clear
9:55 PM 3.2 °F -17.6 °F -0.4 °F 85% 30.10 in 10.0 mi West 19.6 mph 27.6 mph N/A   Clear
10:15 PM 3.2 °F -17.1 °F -0.4 °F 85% 30.11 in 10.0 mi West 18.4 mph 23.0 mph N/A   Clear
10:35 PM 3.2 °F -16.5 °F -0.4 °F 85% 30.10 in 10.0 mi West 17.3 mph 24.2 mph N/A   Clear
10:55 PM 3.2 °F -17.6 °F -0.4 °F 85% 30.10 in 10.0 mi West 19.6 mph 24.2 mph N/A   Clear
11:15 PM 3.2 °F -16.5 °F -0.4 °F 85% 30.11 in 10.0 mi West 17.3 mph - N/A   Clear
11:35 PM 3.2 °F -14.6 °F -0.4 °F 85% 30.11 in 10.0 mi West 13.8 mph 20.7 mph N/A   Clear
11:55 PM 3.2 °F -15.3 °F -0.4 °F 85% 30.10 in 10.0 mi West 15.0 mph - N/A   Clear